Location: Rotheul
(50.2849°N, 11.2349°E)
Time: 15:36:16
(UTC+02:00)

ISS - Pass Details

Date: 20 July 2018
Orbit: 402 x 408 km, 51.6° (Epoch: 21 July)

Event Time Altitude Azimuth Distance (km) Brightness Sun altitude
Rises 22:09:18 0° 209° (SSW) 2,309 -0.2 -7.5°
Reaches altitude 10° 22:11:41 10° 192° (SSW) 1,455 -1.3 -7.7°
Maximum altitude 22:14:11 20° 143° (SE) 994 -2.5 -8.0°
Drops below altitude 10° 22:16:41 10° 93° (E) 1,464 -1.4 -8.3°
Sets 22:19:06 0° 76° (ENE) 2,329 -0.3 -8.5°
